Vertical_Velocity
-4 -2 3 2 -2 -7 -4 -2 -0 -1 -3 5 -3 -2 1 -1 2 1 -2 -2 -5 -4 -3 2 -1 0 -0 9 -13 -7 -2 10 3 4 -3 3 1 -0 -2 -1 0 0 -0 1 -0 1 -0
-3 -1 -6 1 2 -1 -1 3 4 -1 -4 3 3 -4 3 1 -0 -3 -2 0 -1 -3 -2 -1 2 6 5 4 -1 -0 -1 8 5 5 1 3 -8 -5 -2 -1 -2 -3 -2 -0 1 -0 0
-0 -3 1 -2 -8 3 1 1 -0 -2 0 1 1 -4 3 2 -2 -1 2 1 -1 -2 -1 -1 -1 5 6 -36 11 -0 -3 0 0 -2 -5 4 0 -4 0 2 -1 -1 -1 0 -0 -2 -1
0 -5 1 2 -2 -4 2 5 -2 -1 2 3 2 3 -2 -1 1 -1 -0 -1 -2 6 -1 -2 -1 4 -6 -11 15 7 -11 5 5 -1 2 1 9 -2 1 4 1 -3 -2 0 -2 1 -4
1 -3 0 -2 5 0 4 4 -3 -2 3 2 0 4 -4 6 -2 2 -3 -0 2 2 2 4 -0 3 -3 2 -3 9 2 -1 2 10 7 8 11 -1 3 -3 -0 3 -1 1 -2 -1 -0
-0 -3 3 -6 -3 -1 2 -8 1 1 1 1 -1 -4 6 -1 -2 -1 -2 -2 -1 0 4 3 3 3 -0 -7 -4 8 2 1 -1 6 18 19 2 -1 1 2 -5 -1 0 1 -2 0 1
2 -1 -2 -3 2 5 -7 -6 9 -2 0 3 5 0 -3 5 -1 2 -4 -6 -2 -1 1 -1 -4 -3 17 6 10 -10 5 4 9 6 0 4 1 -5 -7 -2 -2 -2 -1 -1 -0 1 0
-2 -3 -0 2 -4 -2 -8 9 -7 5 -1 5 1 8 6 -1 1 -1 -1 -1 -1 -0 -5 -0 -0 -1 -7 2 6 -2 7 5 1 0 -2 8 -2 -3 -1 -0 -2 -0 -1 0 0 0 -0
2 -4 -2 -1 -0 2 -4 -9 2 1 3 -1 -1 -2 2 6 5 -0 0 2 -3 -4 2 -3 3 -6 -12 23 5 -14 1 4 -2 -0 0 -1 -0 1 -1 2 -1 0 -2 0 -2 0 -0
-2 -1 -1 -3 2 -5 -3 -2 -0 3 -1 -1 3 -3 4 -0 -3 -2 -1 3 -0 4 -7 0 2 -9 9 6 0 2 6 5 -1 -1 -3 -2 0 -2 1 -1 -3 -0 -0 -1 -0 -2 -1
3 -3 -1 -3 0 1 -3 -6 1 0 -2 4 -0 -10 -0 2 1 -1 -0 -3 -1 2 -12 -13 -1 1 5 2 -7 -1 3 -3 -0 2 -2 2 2 2 0 1 -3 -0 -1 -1 -0 -1 -1
3 0 1 -1 -1 0 -3 -6 1 1 0 1 -3 0 -8 -4 -2 -1 -3 -4 0 -21 -8 -3 2 1 4 2 3 4 1 -1 2 -4 -4 2 1 -2 1 1 -1 -1 -3 -2 -1 -1 -2
2 1 -0 3 2 -1 -1 -6 -1 -0 4 -5 -0 -2 -5 -9 -3 0 3 4 -13 -8 -10 3 1 -1 -1 2 3 -1 1 1 -3 -3 -1 -1 -1 1 -9 -6 -2 -1 -0 -1 -4 -4 -2
0 -6 4 0 2 -0 1 -4 1 -3 2 1 -8 1 1 -7 -1 -4 -1 -10 -13 1 1 1 -0 3 -3 -1 4 1 0 0 0 -3 -1 -2 4 0 0 -4 -9 0 -1 -4 -2 -1 -1
1 -1 -1 -4 2 -2 -1 -3 -1 1 -2 2 -4 2 -2 -3 -0 -0 -3 -6 -6 -0 1 0 -1 -4 1 -1 -5 -3 0 -0 1 -0 -6 -2 1 -0 -1 -0 -3 -2 -3 -1 -5 -0 -1
2 1 3 -3 2 -0 -2 -1 -4 1 -1 -0 2 0 -1 -1 1 0 -6 -0 1 -1 1 1 -2 -2 -0 1 -3 -1 -1 -1 0 0 -1 1 -4 0 0 -2 -1 -4 -3 -5 -3 -2 -0
-2 1 -2 1 -4 3 -1 -2 -3 -2 -2 -1 3 -3 3 -1 -1 -1 -1 1 -0 0 1 -2 -1 -1 -0 -2 -2 0 0 0 -0 1 -2 -1 -7 1 -1 -1 -3 -1 -0 -2 -5 -1 -2
0 -2 0 -3 -0 2 -0 -0 -2 -3 -3 -4 -1 -5 -0 3 -10 0 0 3 1 -1 2 0 -3 -1 -1 -0 -0 -1 -1 -2 0 -1 -1 0 -3 -1 0 -0 -0 -1 -1 -2 -5 -2 -0
1 0 1 -2 -1 1 -1 -0 -1 -0 -3 -2 -0 -1 0 -1 -4 -1 -2 -1 -0 -1 -0 -0 -0 -2 -0 -1 -5 -1 0 0 0 -1 -3 -3 -1 -1 2 1 -2 -0 1 -1 -1 -2 -2
-1 -1 -1 -4 -3 -2 -2 -3 -2 1 -1 -1 -0 -6 -4 -0 1 -1 0 -1 -1 0 -0 0 -0 -2 -2 -1 -1 -1 1 -1 0 -0 1 -5 -0 -4 -7 -7 -3 0 1 0 -4 -1 -2
1 -4 -0 -2 -2 -2 -2 -1 -1 -0 -1 -0 -0 0 1 -3 -2 -0 -0 1 -0 -2 -1 -0 -0 -1 -2 -1 0 -0 0 1 -1 3 -1 -5 -2 -1 -1 0 -0 -1 -1 0 0 -2 -5
2 -2 2 2 -1 -6 -1 -1 -1 -2 -3 -3 -0 1 -2 -1 -0 1 -1 1 1 -0 1 -1 -3 0 -0 -2 -4 -3 -3 -2 -4 0 -0 -1 -0 -1 -1 0 0 0 -0 0 -0 -0 0
-4 -5 -6 0 -1 0 -1 -2 -2 -4 -4 -1 -0 1 3 -2 -1 -1 -1 -0 -1 -0 1 1 -2 -2 -2 0 -0 1 0 -1 -4 -5 -0 -2 -2 -2 -2 -0 -0 -1 -6 -1 -1 0 -5
-5 2 -1 1 -2 -1 -1 0 -3 -4 -3 -2 1 0 3 -3 1 -1 0 1 0 -0 -1 0 0 -3 0 1 3 -0 -4 -2 -2 0 -1 -1 -1 -1 -1 -2 -4 -11 -0 -3 -4 -1 0
-1 1 -7 2 1 -2 1 1 -1 -4 -3 -1 -1 1 4 -1 1 -2 -0 0 1 2 -1 -1 0 3 -1 1 -3 -2 -3 -3 1 1 -0 -2 -2 -1 -1 -0 -8 -1 -0 -5 -6 -1 -2
-5 2 -4 -2 3 -1 3 2 0 1 -5 -4 -0 -0 3 6 -3 1 1 0 -1 0 -2 0 1 -0 2 -2 -1 -1 -2 -2 2 1 -0 -1 -2 -5 1 1 -1 -4 0 1 -1 -1 -1
-2 -1 -1 -1 3 1 -2 1 0 2 0 0 -4 -1 -1 3 -6 4 0 -1 0 0 -2 1 1 -1 0 -0 -1 -1 -0 -3 -2 -1 0 0 1 -2 -0 -0 -7 -4 -2 1 -1 -3 0
-2 -4 -3 -1 2 -3 1 -2 -1 0 3 4 -2 -6 -1 2 -17 -3 8 2 2 1 -2 -0 -3 -2 -1 -2 -2 -1 -1 -1 -1 -2 -3 -4 -1 -0 1 2 -7 -1 1 -0 -3 -3 -0
-2 1 0 -1 -2 -2 6 0 -1 -1 2 10 -2 2 -2 6 -10 4 -0 1 2 3 -1 -0 -1 -0 -2 -2 -0 -1 1 1 -1 -1 -0 0 -9 -6 -9 -11 -3 1 -1 5 2 0 1
Height
1529 1526 1523 1518 1514 1510 1507 1502 1497 1492 1488 1484 1481 1477 1474 1470 1467 1465 1462 1461 1460 1459 1460 1460 1461 1462 1462 1460 1458 1459 1460 1462 1464 1471 1477 1481 1485 1491 1494 1498 1499 1503 1504 1505 1506 1509 1510
1527 1524 1521 1518 1514 1508 1503 1498 1493 1488 1484 1480 1477 1473 1470 1466 1463 1461 1459 1457 1456 1456 1456 1456 1457 1457 1458 1457 1454 1457 1457 1460 1462 1466 1473 1478 1481 1488 1493 1496 1497 1499 1503 1504 1504 1507 1508
1527 1524 1519 1514 1510 1506 1500 1494 1490 1485 1480 1476 1472 1469 1466 1462 1460 1458 1456 1454 1453 1452 1452 1452 1453 1453 1451 1446 1449 1450 1454 1459 1460 1464 1468 1476 1481 1486 1488 1494 1496 1499 1504 1504 1503 1506 1507
1525 1521 1517 1512 1507 1503 1498 1492 1487 1481 1476 1472 1468 1464 1461 1458 1456 1455 1453 1451 1450 1450 1449 1449 1450 1450 1445 1445 1449 1452 1454 1456 1458 1465 1470 1476 1481 1484 1486 1490 1494 1500 1503 1507 1499 1502 1505
1524 1520 1516 1511 1505 1501 1496 1489 1484 1479 1473 1468 1463 1460 1456 1455 1452 1451 1449 1448 1447 1445 1445 1446 1447 1448 1444 1443 1446 1449 1450 1452 1457 1463 1469 1475 1480 1482 1486 1490 1498 1501 1505 1506 1501 1500 1501
1523 1519 1514 1509 1504 1499 1493 1488 1481 1475 1470 1464 1459 1455 1452 1449 1447 1447 1446 1445 1443 1441 1442 1443 1446 1450 1442 1443 1444 1447 1449 1451 1457 1462 1472 1476 1479 1482 1485 1487 1489 1493 1500 1503 1502 1500 1501
1520 1517 1513 1507 1502 1497 1492 1485 1479 1474 1467 1461 1454 1449 1446 1445 1444 1444 1443 1442 1444 1444 1442 1441 1442 1439 1437 1441 1443 1447 1450 1451 1456 1459 1466 1470 1473 1472 1476 1484 1485 1489 1496 1500 1499 1499 1501
1518 1515 1511 1507 1501 1496 1490 1484 1478 1471 1465 1457 1449 1443 1440 1440 1441 1441 1441 1441 1442 1444 1442 1439 1439 1439 1439 1440 1444 1447 1451 1453 1453 1455 1460 1467 1468 1472 1478 1483 1486 1490 1496 1500 1499 1499 1499
1516 1513 1510 1506 1500 1494 1488 1482 1476 1469 1463 1455 1446 1439 1433 1434 1437 1439 1440 1441 1440 1442 1443 1440 1439 1438 1439 1439 1440 1448 1450 1448 1452 1457 1468 1470 1470 1467 1474 1482 1485 1492 1494 1498 1497 1499 1501
1516 1512 1509 1504 1498 1491 1486 1481 1475 1468 1462 1455 1446 1439 1433 1434 1439 1438 1439 1438 1438 1441 1454 1443 1441 1441 1437 1439 1444 1448 1451 1452 1455 1455 1464 1468 1469 1469 1473 1479 1482 1490 1491 1495 1497 1499 1503
1514 1510 1506 1503 1497 1491 1485 1479 1474 1468 1463 1456 1448 1444 1442 1437 1439 1440 1441 1441 1441 1443 1468 1445 1441 1440 1441 1442 1445 1450 1450 1453 1455 1458 1461 1472 1467 1472 1477 1478 1481 1491 1493 1498 1501 1506 1507
1513 1509 1505 1500 1496 1490 1484 1478 1473 1468 1463 1459 1452 1447 1444 1443 1441 1443 1442 1443 1444 1457 1467 1446 1442 1444 1441 1445 1446 1451 1454 1457 1457 1460 1463 1469 1470 1473 1480 1485 1487 1494 1498 1504 1510 1509 1509
1515 1511 1505 1501 1495 1489 1483 1477 1472 1468 1464 1461 1457 1451 1447 1445 1446 1445 1445 1445 1455 1449 1452 1446 1446 1448 1443 1448 1450 1453 1456 1458 1462 1469 1473 1479 1478 1480 1481 1490 1492 1493 1496 1503 1508 1514 1503
1513 1510 1507 1502 1496 1489 1483 1477 1473 1468 1464 1462 1459 1456 1453 1450 1448 1447 1446 1447 1455 1450 1448 1449 1448 1445 1444 1451 1453 1456 1458 1461 1463 1466 1477 1479 1486 1481 1481 1484 1489 1496 1494 1499 1498 1504 1504
1512 1508 1505 1501 1496 1489 1484 1478 1472 1469 1464 1460 1458 1456 1455 1452 1450 1449 1448 1455 1464 1457 1453 1447 1445 1447 1450 1453 1456 1462 1462 1463 1464 1465 1469 1480 1489 1485 1484 1484 1488 1497 1503 1505 1518 1529 1519
1513 1507 1505 1500 1496 1488 1483 1478 1472 1468 1464 1459 1457 1454 1455 1452 1449 1449 1451 1449 1453 1455 1452 1450 1451 1454 1457 1459 1461 1465 1462 1465 1465 1465 1463 1474 1488 1485 1487 1485 1490 1490 1500 1506 1517 1511 1502
1512 1508 1504 1499 1495 1490 1483 1479 1472 1467 1463 1459 1456 1455 1455 1452 1450 1449 1453 1454 1454 1451 1451 1449 1452 1455 1458 1460 1461 1462 1465 1465 1463 1466 1465 1472 1479 1490 1487 1490 1494 1498 1501 1508 1509 1515 1501
1509 1505 1501 1500 1495 1489 1484 1478 1473 1467 1462 1459 1456 1457 1455 1452 1454 1457 1456 1457 1454 1451 1450 1449 1449 1451 1456 1458 1461 1462 1464 1463 1464 1464 1471 1475 1482 1489 1492 1493 1493 1493 1497 1502 1508 1515 1521
1508 1504 1500 1497 1495 1490 1484 1479 1474 1468 1464 1461 1459 1457 1456 1452 1460 1460 1458 1456 1456 1453 1451 1449 1449 1450 1454 1458 1462 1464 1465 1465 1464 1465 1470 1474 1489 1500 1494 1495 1494 1493 1496 1500 1506 1513 1518
1505 1503 1498 1495 1493 1489 1484 1479 1475 1470 1465 1463 1462 1462 1457 1456 1457 1459 1460 1458 1454 1452 1451 1450 1451 1451 1454 1460 1461 1464 1466 1467 1466 1467 1469 1472 1486 1488 1493 1490 1493 1498 1494 1498 1501 1515 1509
1505 1502 1498 1494 1492 1489 1484 1479 1475 1471 1466 1465 1464 1465 1465 1464 1459 1459 1459 1459 1455 1455 1452 1451 1452 1452 1454 1461 1463 1466 1466 1468 1470 1470 1471 1474 1489 1492 1488 1487 1493 1491 1491 1497 1501 1499 1498
1503 1501 1500 1493 1490 1488 1485 1480 1475 1471 1467 1466 1467 1467 1465 1462 1460 1458 1456 1457 1456 1456 1455 1453 1454 1455 1454 1457 1458 1464 1464 1467 1468 1472 1473 1476 1490 1492 1494 1486 1490 1491 1489 1492 1493 1491 1490
1499 1497 1499 1494 1490 1487 1484 1480 1476 1472 1469 1468 1469 1469 1468 1462 1460 1460 1458 1456 1455 1455 1456 1454 1455 1456 1458 1459 1458 1458 1460 1461 1463 1469 1474 1477 1488 1494 1498 1489 1489 1489 1480 1482 1485 1485 1481
1497 1495 1494 1490 1488 1487 1484 1480 1477 1474 1471 1472 1471 1470 1469 1464 1463 1459 1458 1457 1455 1455 1453 1455 1454 1455 1461 1460 1460 1462 1462 1464 1466 1469 1470 1479 1485 1491 1496 1491 1496 1468 1467 1470 1472 1474 1476
1495 1494 1493 1490 1486 1484 1483 1481 1477 1475 1473 1471 1471 1471 1470 1465 1463 1459 1457 1456 1455 1454 1455 1456 1457 1457 1459 1460 1463 1468 1469 1468 1472 1473 1472 1472 1481 1489 1491 1495 1483 1464 1468 1470 1470 1464 1466
1494 1493 1490 1488 1485 1482 1481 1479 1477 1474 1473 1471 1470 1470 1471 1468 1460 1460 1457 1455 1457 1458 1458 1458 1458 1459 1460 1462 1465 1461 1473 1471 1471 1474 1474 1475 1477 1486 1490 1484 1481 1464 1461 1460 1461 1467 1462
1490 1491 1489 1485 1483 1480 1478 1477 1475 1473 1472 1470 1470 1469 1469 1467 1459 1458 1457 1455 1454 1457 1459 1458 1458 1459 1461 1465 1468 1475 1469 1466 1470 1469 1475 1477 1479 1484 1480 1481 1478 1464 1461 1461 1466 1468 1459
1488 1487 1485 1482 1480 1478 1475 1474 1472 1470 1469 1468 1467 1467 1468 1465 1458 1457 1454 1454 1453 1453 1457 1458 1460 1459 1463 1467 1469 1472 1472 1466 1466 1468 1469 1471 1473 1474 1478 1479 1483 1459 1460 1462 1461 1458 1457
1484 1483 1481 1478 1476 1475 1472 1470 1468 1467 1466 1465 1464 1464 1464 1463 1457 1453 1450 1450 1452 1453 1454 1455 1457 1455 1457 1463 1469 1469 1465 1466 1466 1465 1468 1471 1470 1472 1471 1468 1458 1458 1458 1457 1455 1455 1455